Погода в Рожке

Россия / Ростовская область     47°08′37″N   38°24′51″E
темп.,
°C
ветер,
м/с
пор.,
м/с
влажн.,
%
обл.,
%
осадки,
мм/ч
давл.,
гПа
погр.,
м
10 апреля, сб
сб1000:00+5с485966 0.0 1023170
03:00+4с48675 0.0 1023150
06:00+3с5116967 0.0 1023205
09:00+8ссв7125459 0.0 1023763
12:00+11ссв7845100 0.0 10221277
15:00+13ссв674396 0.0 10211512
18:00+12ссв475398 0.0 1021307
21:00+9ссв3564100 0.0 102291
11 апреля, вс
вс1100:00+9с4765100 0.0 1022204
03:00+8ссв51162100 0.0 1022382
06:00+7ссв71461100 0.0 1022531
09:00+6ссв61279100 0.8 1023586
12:00+11св81169100 0.1 10211048
15:00+9св61180100 0.1 1022781
18:00+9св61083100 0.0 1021642
21:00+8св5985100 0.0 1021423
12 апреля, пн
пн1200:00+8ссв4990100 0.0 1020239
03:00+8с4889100 0.0 1018224
06:00+8ссв3496100 0.2 1018110
09:00+11ю2290100 0.2 1019286
12:00+11юз4488100 0.6 1020382
15:00+13зюз3379100 0.9 1020515
18:00+10юз3587100 0.0 1021190
21:00+10зюз2586100 0.0 1022169
13 апреля, вт
вт1300:00+9з2384100 0.0 1022105
03:00+9з358598 0.0 1022137
06:00+9з3587100 0.0 1021153
09:00+11з347676 0.0 1021379
12:00+13зюз3372100 0.0 1021625
15:00+12юз5574100 0.0 1021462
18:00+10юз577778 0.0 1021287
21:00+9юз368395 0.0 1022266
14 апреля, ср
ср1400:00+9юз2488100 0.0 1022191
03:00+9юз2291100 0.0 102163
06:00+8ююз119292 0.0 102114
09:00+11ююз2277100 0.0 1021376
12:00+12юз227599 0.0 1019404
15:00+14ю326593 0.0 1019690
18:00+12ююз227170 0.0 1018239
21:00+10з227877 0.0 101833